Theta_e
316 317 319 320 321 324 324 325 328 332 332 333 333 334 333 331 329 328 326 326 326 325 325 324 324 324 324 324 325 325 325 325 326 326 326 326 326 326 326 326 326 327 328 329 329 329 329 328 328 329 330 331 330 329 328 328 327 327 327 327 325 324 323 323 321 320 319 319 322 318 313 309 314 322 322 328 334 334 335 334 334 333 333 332 332
315 315 316 316 318 320 321 321 323 327 329 331 332 333 334 334 332 331 329 328 328 327 326 326 326 327 326 326 327 327 327 325 325 325 326 326 327 328 328 328 329 330 330 330 330 330 330 329 329 329 331 332 331 330 329 329 327 326 327 327 327 326 326 326 325 322 321 319 320 321 319 313 315 325 324 327 332 334 334 331 334 336 334 333 330
316 315 314 314 315 316 318 319 320 323 325 327 329 331 332 333 333 332 331 329 328 327 328 328 328 329 329 329 330 330 329 327 326 326 327 327 328 329 329 329 329 331 331 331 330 331 331 331 330 330 331 331 330 329 329 328 327 326 325 326 328 328 327 326 326 325 324 321 319 319 322 320 320 331 333 332 332 330 329 322 327 335 335 335 331
317 316 314 314 314 315 316 317 318 320 322 324 326 328 329 330 331 332 331 329 329 328 329 330 329 331 330 331 331 330 330 330 330 329 329 329 329 329 330 330 329 330 331 332 332 332 332 332 331 330 329 328 328 328 327 326 325 325 324 325 327 327 327 326 326 326 325 324 322 319 319 321 322 331 338 338 336 332 329 321 320 326 328 329 328
320 316 315 314 314 315 316 316 317 316 318 321 323 325 327 329 330 331 330 329 329 330 331 331 331 331 331 332 331 331 331 332 331 330 330 329 327 327 328 329 329 330 331 333 333 332 331 331 331 330 328 327 326 326 324 323 324 324 324 324 325 326 326 325 326 326 325 324 324 322 319 319 319 326 336 338 338 336 333 328 321 320 319 319 318
321 318 316 314 314 314 314 315 314 313 314 317 320 324 326 328 329 330 330 329 330 331 332 332 332 332 332 332 332 332 333 332 331 330 329 327 325 325 325 326 327 329 329 332 333 331 330 329 328 328 326 325 324 323 322 322 323 324 325 324 325 325 326 325 325 326 326 326 324 324 322 320 317 320 332 337 337 338 335 332 326 321 320 320 318
322 319 317 315 314 313 313 313 312 312 314 317 320 323 325 327 328 329 329 330 331 332 332 332 332 332 332 332 333 333 333 332 330 329 327 325 325 325 325 325 325 325 325 327 328 327 327 327 327 326 323 322 322 321 321 321 322 322 323 323 323 324 325 326 326 326 327 328 327 326 325 323 320 318 325 333 336 336 336 335 329 322 319 321 322
320 320 318 315 314 313 313 312 313 314 316 319 320 322 323 324 325 327 329 330 332 332 332 332 332 332 332 332 333 332 330 328 326 325 325 324 323 323 323 322 321 320 320 319 319 319 321 324 325 323 318 317 316 316 315 315 315 315 316 316 316 317 319 322 324 325 326 328 329 329 329 326 324 320 320 327 332 333 334 334 331 325 318 317 319
320 319 318 316 314 314 313 313 315 316 319 320 319 320 322 322 323 327 330 329 330 331 331 330 329 328 328 328 327 325 323 321 319 318 318 317 317 317 316 315 314 314 314 314 313 313 314 316 318 316 313 312 311 311 310 310 311 311 311 311 312 312 313 314 316 319 321 324 327 329 331 330 328 325 321 323 330 332 332 332 331 327 321 317 316
321 319 318 317 315 314 314 314 316 318 319 319 317 317 319 320 322 326 328 326 325 325 325 323 321 320 320 319 318 317 316 315 314 313 313 312 312 312 312 312 312 311 311 311 311 311 311 311 311 311 310 309 309 309 308 308 308 308 308 308 308 308 309 309 310 311 314 316 320 325 329 331 330 330 326 323 327 331 332 331 330 328 323 321 318
320 320 318 317 316 315 314 315 316 318 318 317 315 316 318 319 322 324 322 319 317 317 317 316 315 315 315 315 315 314 313 313 312 312 311 311 311 310 310 310 309 309 308 308 308 308 308 308 308 307 306 306 305 305 305 304 304 304 304 304 304 304 305 305 306 306 308 310 312 316 321 326 329 330 330 327 326 329 331 330 330 329 328 329 326
320 319 318 317 316 315 314 315 316 317 316 314 313 314 316 318 321 321 318 314 313 314 314 313 313 314 314 314 314 313 312 312 311 311 310 309 308 307 306 306 305 305 305 304 305 304 304 304 304 304 304 304 303 303 303 303 303 304 304 304 304 304 304 304 304 304 305 306 307 309 313 318 323 326 328 329 329 330 330 330 331 331 332 333 332
318 318 318 317 316 316 314 314 316 316 315 312 311 312 313 314 316 316 314 312 313 314 313 313 313 313 312 312 312 311 310 310 309 308 307 305 304 304 304 303 303 303 303 303 303 303 303 303 304 303 303 303 303 303 303 303 304 304 304 304 304 304 305 305 305 305 305 305 305 306 308 311 315 318 321 325 328 330 330 330 331 333 335 335 335
317 317 317 317 316 316 314 314 315 316 315 312 311 312 312 313 313 313 312 312 312 312 312 312 311 311 311 310 310 309 308 307 306 305 304 304 304 304 303 303 303 303 303 303 303 303 303 303 303 303 303 303 303 303 303 304 304 304 304 304 304 305 305 305 305 305 305 305 305 304 305 307 309 312 314 317 320 324 328 329 329 332 335 335 335
317 318 317 317 316 315 315 314 314 315 314 313 312 313 313 313 313 312 312 311 311 310 310 310 310 310 309 308 307 306 305 305 305 305 304 304 304 304 304 304 304 303 303 303 303 303 303 303 303 303 303 303 303 303 304 304 305 305 305 305 305 305 305 305 305 305 305 305 305 304 304 304 306 308 310 312 314 317 322 325 326 328 333 335 334
316 317 317 317 316 316 315 314 314 314 313 313 313 313 313 312 312 311 310 310 309 309 309 309 309 308 307 306 305 304 304 304 305 305 305 304 304 304 304 304 304 304 303 303 303 303 303 303 303 303 303 303 304 304 305 305 305 305 305 306 306 305 305 305 305 305 305 305 305 304 304 304 304 305 307 309 311 312 315 319 321 323 328 332 331
316 316 317 317 316 316 315 315 314 313 313 313 313 313 313 312 311 310 310 309 309 309 309 308 308 307 305 304 304 304 305 305 305 305 305 305 304 304 304 304 304 304 303 303 303 303 303 303 303 303 304 304 305 305 305 305 305 305 305 305 306 306 306 306 306 305 305 305 305 305 304 304 304 303 304 305 307 309 312 314 316 318 321 325 327
315 316 316 316 316 316 315 314 314 314 313 313 313 313 312 311 310 310 309 309 309 309 308 308 307 306 304 304 304 305 305 305 305 305 304 304 304 304 304 304 304 303 303 303 303 304 304 304 304 305 305 305 305 305 305 305 305 305 305 305 305 305 305 305 306 306 305 305 305 305 304 304 304 304 303 303 304 305 308 310 312 314 316 319 320
315 315 315 316 316 316 316 314 314 314 313 313 313 313 313 311 310 310 310 309 309 308 308 308 307 305 304 304 305 305 305 305 305 304 304 304 304 303 303 303 303 303 303 303 304 304 304 305 305 305 305 305 304 304 304 304 304 304 304 305 305 305 305 305 305 305 305 305 304 304 304 304 304 304 304 303 303 304 305 306 308 310 311 313 315
315 315 315 315 316 316 316 315 314 313 313 312 313 313 313 311 311 310 310 309 309 308 308 307 306 304 304 305 305 305 305 305 305 304 304 303 303 303 303 303 303 303 303 303 304 304 305 305 305 305 304 304 304 304 304 304 304 304 304 304 304 304 305 305 305 305 305 305 304 304 304 304 304 304 304 304 303 303 304 304 305 306 307 309 310
316 315 315 315 315 315 315 315 314 313 312 312 312 313 312 312 311 310 310 310 309 309 308 307 305 304 305 305 305 306 306 306 305 304 303 303 303 303 302 302 302 302 303 303 304 304 304 305 304 304 304 304 304 304 304 304 304 304 304 304 304 304 304 305 305 305 304 304 304 304 303 303 303 303 303 303 303 304 303 304 304 305 306 307 307
316 316 316 315 315 315 315 315 315 314 313 312 312 312 312 312 311 311 310 310 309 309 308 307 305 304 305 305 305 306 306 306 305 304 303 303 303 302 302 302 302 303 303 303 304 304 304 304 304 304 304 304 303 304 303 303 304 303 304 304 304 304 304 304 304 304 304 304 303 303 303 303 303 303 303 303 303 303 303 304 304 304 305 305 305
317 317 316 315 315 314 315 315 315 314 313 312 312 312 312 312 311 311 310 310 309 309 308 307 305 304 304 305 305 306 307 307 306 304 304 303 303 302 302 302 303 303 303 304 304 304 304 304 303 303 303 303 303 303 303 303 303 303 303 303 303 304 304 304 304 304 304 303 303 303 302 302 302 302 303 303 303 303 303 304 304 304 304 304 304
317 317 317 316 315 315 314 315 315 315 314 313 312 312 312 312 311 311 310 310 309 309 308 307 305 304 304 305 305 306 307 307 307 306 305 304 303 303 303 303 303 303 304 304 304 304 304 303 303 303 303 303 303 303 303 303 303 303 303 303 303 303 304 304 304 304 303 303 302 302 302 302 302 302 302 302 303 303 303 303 303 303 304 304 303
317 317 317 316 316 315 314 315 315 315 314 313 312 312 312 312 311 310 310 310 309 309 308 307 304 304 304 304 305 305 307 307 307 306 305 304 303 303 302 303 303 303 304 304 304 303 303 303 303 303 303 303 303 303 303 302 303 303 303 303 303 303 304 304 304 304 303 303 302 302 302 301 301 301 301 302 302 302 302 303 303 303 303 303 303
316 316 316 316 316 316 315 314 314 315 315 314 313 313 312 312 311 311 310 310 310 309 308 307 304 304 304 304 305 305 306 307 307 306 305 304 303 303 302 302 303 303 303 303 303 303 303 303 303 303 303 303 303 303 303 303 302 302 303 303 303 303 303 304 304 304 304 303 302 302 301 301 301 301 301 301 301 302 302 302 302 302 302 302 302
316 316 316 316 316 316 315 315 314 314 314 314 314 313 312 312 311 311 310 310 310 309 309 307 305 304 304 304 304 305 305 306 307 306 305 304 303 303 302 302 302 303 303 303 303 303 303 303 303 303 303 303 302 302 302 302 302 302 302 302 303 303 303 303 304 304 303 303 302 302 301 301 301 300 300 300 300 301 301 301 301 301 301 301 301
316 316 316 316 316 316 316 315 315 314 314 314 314 314 313 312 311 310 310 310 310 309 309 308 306 304 304 304 304 304 305 305 306 306 305 304 304 303 302 302 302 302 302 302 302 303 303 303 303 303 303 303 302 302 302 302 302 302 302 302 302 303 303 303 303 303 303 303 302 301 301 300 300 300 300 300 300 300 300 300 300 300 300 300 300
315 315 315 316 316 316 315 315 315 315 314 314 314 314 314 313 312 311 310 310 310 309 309 308 307 305 304 303 304 304 304 304 305 305 305 305 304 303 303 302 302 302 302 302 302 303 303 303 303 303 303 303 303 302 302 302 302 302 302 302 302 302 303 303 303 303 303 302 302 301 300 300 300 300 300 299 299 299 299 299 299 299 299 299 299
315 315 315 315 316 315 315 315 315 315 315 314 314 314 314 314 313 312 311 310 310 309 309 309 308 306 304 303 303 304 303 304 304 304 304 304 304 304 303 302 302 302 302 302 302 303 303 304 304 304 303 303 303 302 302 302 302 302 302 302 302 302 302 303 303 303 302 302 301 300 300 300 300 299 299 299 299 299 299 299 299 299 299 299 299
315 315 315 315 315 315 315 315 315 315 315 314 314 314 314 314 314 313 312 311 310 309 309 308 308 307 305 303 303 303 303 303 303 303 303 303 303 303 303 302 302 302 302 302 302 302 303 303 303 303 303 303 302 302 302 302 301 301 301 301 301 302 302 302 302 302 302 301 300 300 299 299 299 299 299 299 298 298 298 298 299 299 299 299 299
315 315 315 314 315 315 315 315 315 315 315 315 314 314 314 314 314 313 312 311 310 309 309 308 308 308 306 304 303 303 303 302 303 303 303 303 303 302 302 302 301 301 302 302 302 302 302 302 303 302 302 302 302 302 302 302 302 301 301 301 301 301 302 302 302 302 301 301 300 299 299 298 298 298 298 298 298 298 298 298 298 298 299 298 299
316 316 315 314 315 314 314 314 315 315 315 315 314 314 314 314 314 313 313 312 310 309 309 309 308 308 307 305 303 302 302 302 302 302 302 302 302 302 302 301 301 301 301 301 301 302 302 302 302 302 302 302 301 301 301 302 301 301 301 301 301 301 301 302 301 301 301 300 299 299 298 298 297 297 297 297 297 297 297 297 298 298 298 297 298
316 315 315 315 315 315 314 314 314 315 314 314 315 314 314 314 314 313 313 312 311 310 309 309 308 308 308 307 304 302 302 302 302 302 302 302 302 301 301 301 301 301 301 301 301 301 301 301 301 301 301 301 301 301 301 301 301 301 301 300 300 301 301 301 301 300 300 299 298 298 298 297 297 297 297 297 296 296 296 297 297 297 297 297 297
316 315 316 316 315 314 314 314 314 314 314 314 314 314 314 314 313 313 313 313 312 311 310 309 308 308 308 307 306 303 302 301 301 301 301 301 301 301 301 300 300 300 301 300 301 301 301 301 301 301 301 301 301 301 301 301 301 301 300 300 300 300 301 301 300 299 299 298 298 297 297 297 297 297 296 296 296 296 296 296 296 296 296 296 296
316 316 316 316 315 315 314 314 314 314 314 314 314 314 314 314 313 313 313 313 312 311 310 309 308 308 307 307 307 305 302 301 301 301 301 301 301 301 300 300 300 300 300 300 300 301 301 301 301 301 301 301 301 301 301 301 301 301 300 300 300 300 300 300 300 299 298 297 297 297 297 297 296 296 296 296 296 296 296 296 296 296 296 296 295
317 316 316 315 315 315 315 315 314 314 314 314 314 314 314 314 313 313 313 312 312 312 310 309 308 308 307 307 307 306 304 301 301 301 301 301 301 300 300 300 300 300 299 300 300 300 300 300 301 301 301 301 300 300 301 301 301 301 300 300 300 300 300 300 300 299 297 297 297 297 296 296 296 296 296 296 296 296 296 296 295 295 295 295 296
316 315 315 315 315 315 314 314 314 314 313 313 314 314 314 313 313 312 312 312 312 312 310 309 308 307 307 306 306 306 305 303 301 300 300 300 300 300 300 300 299 299 299 299 300 300 300 300 300 300 300 300 300 300 300 300 301 300 300 300 300 300 300 300 300 299 298 297 297 296 296 296 296 295 295 295 295 295 295 295 295 295 295 295 296
314 314 314 314 314 314 314 314 314 314 313 313 313 313 313 313 313 312 312 312 311 311 310 309 308 307 307 306 306 306 306 304 301 300 300 300 300 300 300 299 299 299 299 299 300 300 300 300 300 300 300 300 300 300 300 300 300 300 300 300 299 299 299 300 299 298 297 297 297 296 295 295 295 295 295 295 295 295 295 295 295 295 295 295 295
313 313 313 314 314 314 314 314 314 314 313 312 312 312 313 312 312 312 312 312 311 311 311 310 309 308 308 307 306 305 305 305 303 301 300 300 300 300 300 299 299 298 298 299 299 300 300 300 300 300 300 300 300 299 299 300 300 300 300 299 299 299 299 299 298 297 296 296 296 295 295 295 295 295 295 295 295 295 295 295 295 295 295 295 295
313 313 313 314 314 314 315 315 314 314 313 312 312 312 313 313 313 313 313 312 312 311 311 310 310 309 308 307 306 305 305 305 304 301 300 300 300 299 299 299 299 298 298 299 299 299 299 299 299 299 299 299 299 299 299 299 300 300 299 299 299 299 298 298 297 296 296 295 295 295 294 295 295 295 295 295 295 295 295 295 295 295 295 295 295
313 313 314 313 313 314 314 314 314 314 314 313 313 313 313 314 314 314 314 313 313 312 311 311 310 309 309 308 306 305 304 304 304 302 300 299 299 299 299 299 299 298 298 298 298 299 299 299 299 299 299 299 299 299 299 299 299 299 299 299 299 298 298 297 296 295 295 295 294 294 294 295 295 295 295 295 295 295 295 295 295 295 295 295 295
313 313 313 313 313 313 313 314 313 313 313 313 312 312 312 313 313 313 313 313 312 312 311 310 310 309 308 307 306 305 304 303 303 302 301 300 299 299 299 299 299 298 298 298 298 298 299 299 299 299 299 299 299 299 299 299 299 299 299 299 298 298 297 297 296 296 295 295 294 294 294 294 295 295 295 295 295 295 295 295 295 295 295 295 295
313 313 313 313 313 313 313 313 313 313 313 313 312 311 311 311 311 311 311 311 312 311 310 309 309 308 308 307 306 305 304 303 303 302 301 300 299 299 299 299 298 298 298 298 298 298 299 299 299 299 299 299 299 299 298 299 298 299 299 298 298 297 297 296 296 295 295 295 295 294 294 294 294 294 294 294 295 295 295 295 295 295 295 295 294
313 314 313 313 313 313 313 313 313 313 312 312 311 311 310 310 310 309 309 309 310 310 309 309 308 308 308 307 307 306 305 303 302 302 302 300 299 299 299 298 298 298 298 298 298 298 299 299 299 299 299 299 299 298 298 298 298 298 298 299 298 297 297 296 296 295 296 296 295 294 294 294 294 293 293 294 294 294 294 294 294 294 294 294 293
313 313 312 312 313 313 312 312 312 312 312 312 311 311 310 310 309 309 310 310 310 310 310 310 310 309 309 308 308 307 306 305 303 302 302 301 300 299 299 298 298 298 298 298 298 298 298 298 299 298 298 298 298 298 298 298 298 298 298 298 299 298 297 297 296 296 296 295 294 294 294 294 293 293 293 293 293 293 294 294 293 293 293 293 293
313 312 311 311 311 312 311 311 311 311 311 311 311 311 310 310 310 310 310 311 311 312 312 311 310 310 310 309 308 307 307 306 304 303 302 301 300 299 298 298 298 297 297 297 297 297 298 298 298 298 298 298 298 298 298 298 298 298 298 298 298 298 298 297 296 296 295 295 295 294 294 294 293 293 293 293 293 293 293 293 293 293 293 292 292
313 312 311 311 310 311 311 310 310 310 310 310 310 310 310 310 310 310 310 310 311 311 311 311 310 310 309 308 308 307 307 306 305 303 302 301 301 299 298 298 297 297 297 297 297 297 297 297 298 298 298 298 298 298 298 298 298 297 297 297 298 298 298 297 296 296 295 295 295 294 294 293 293 293 293 292 293 293 293 293 293 292 292 292 292
313 313 312 312 311 310 310 309 309 309 309 309 309 309 310 310 310 309 309 309 309 309 310 310 310 309 308 308 307 307 307 306 305 303 302 301 301 300 299 298 297 297 296 296 296 296 297 297 297 297 298 297 297 297 297 297 297 297 297 297 297 297 297 297 296 296 295 294 294 294 294 294 293 293 292 292 293 293 293 292 292 292 292 292 292
314 313 313 312 312 311 310 309 309 309 309 308 308 308 308 309 309 309 309 309 308 308 308 308 308 308 308 308 307 307 306 306 305 304 302 301 301 300 299 298 297 296 296 296 296 296 296 297 297 297 297 297 297 297 297 297 297 297 297 297 297 297 297 297 296 296 295 294 294 294 294 294 294 293 292 292 292 292 292 292 292 292 292 292 292
314 314 313 312 312 311 310 310 309 308 308 308 307 308 307 308 308 308 308 308 308 308 308 308 308 308 308 307 307 307 306 306 305 304 303 302 301 300 300 299 297 296 296 296 296 296 296 296 296 297 297 297 297 297 297 297 297 296 296 297 297 297 297 297 297 296 295 294 294 293 293 293 293 293 292 292 291 291 292 292 292 292 292 292 292
Wind_Speed
21 22 21 20 20 20 19 18 17 18 16 15 14 13 12 11 12 12 11 10 10 10 10 10 9 9 8 9 8 7 7 7 7 7 6 6 6 6 6 5 4 3 3 2 2 2 2 3 2 2 1 1 1 1 1 1 2 2 2 2 2 2 3 3 3 4 4 4 4 5 6 6 5 4 4 4 3 4 6 7 7 6 6 5 5
15 20 21 20 20 20 19 19 18 19 17 16 15 14 13 12 12 11 11 10 10 9 10 10 10 9 8 8 8 8 7 7 7 7 7 7 7 6 6 5 4 3 2 2 2 2 2 2 3 4 4 3 3 3 2 1 1 2 2 2 2 3 4 4 4 3 3 3 3 3 5 6 6 6 5 4 3 4 6 7 6 6 6 7 6
13 18 20 20 20 20 20 19 19 19 19 18 17 16 15 15 14 13 12 11 10 10 10 10 9 8 8 8 8 8 8 7 7 7 7 7 7 6 6 4 4 3 2 2 2 2 2 3 4 5 5 5 4 4 3 3 3 4 4 3 2 3 3 4 4 4 3 2 2 2 3 4 5 6 6 4 3 4 6 6 5 4 4 5 6
13 17 19 20 20 20 19 19 19 19 19 18 18 17 17 16 15 14 13 11 11 10 10 10 9 9 9 9 9 8 8 8 8 8 9 9 7 6 5 5 4 4 3 2 2 3 3 4 5 5 5 5 4 3 3 4 5 6 5 4 3 3 3 3 3 3 3 3 3 2 1 2 3 4 5 4 3 4 5 5 4 2 2 3 4
11 16 18 19 19 20 20 19 19 19 19 18 18 17 17 16 16 15 14 12 11 11 11 11 10 10 10 10 10 10 10 10 11 11 12 11 10 8 7 6 5 4 4 4 4 5 6 6 6 5 5 4 4 4 5 6 7 7 7 6 5 4 4 3 3 4 4 4 3 3 2 1 1 2 4 3 1 3 4 4 4 3 2 2 3
10 15 17 18 18 19 20 20 19 18 18 18 18 17 17 16 16 15 14 13 13 12 12 12 12 12 12 12 12 12 12 13 14 14 13 13 11 10 9 8 7 7 6 6 6 7 7 7 6 6 5 5 7 8 9 10 10 9 9 8 7 6 6 5 5 4 5 5 5 4 3 3 2 3 3 3 1 2 4 3 4 5 4 3 3
10 13 16 17 18 19 19 19 19 18 17 17 17 17 17 17 16 15 14 14 14 14 14 13 13 13 14 14 14 15 15 15 16 15 13 13 12 11 11 10 10 10 9 9 10 9 8 7 7 7 8 9 11 11 12 12 12 12 12 11 10 9 8 7 6 6 6 6 6 6 4 4 4 4 4 1 1 3 4 5 4 6 6 4 3
11 13 15 17 18 18 18 18 18 17 17 16 16 17 17 18 17 16 16 16 16 15 15 15 16 17 17 17 17 18 19 18 17 16 14 13 13 12 12 12 12 12 12 12 13 12 11 10 10 11 12 13 13 13 13 13 14 14 14 14 13 12 11 10 9 8 7 7 7 7 6 5 4 4 6 2 1 3 5 7 6 7 6 5 4
11 13 15 17 18 18 18 18 18 17 17 16 16 17 17 18 18 18 18 18 18 18 19 19 20 20 21 21 20 20 20 19 17 15 14 14 13 13 13 13 12 12 12 12 13 12 12 12 13 13 13 12 12 12 12 12 13 13 13 14 13 13 12 12 11 10 10 9 9 8 8 7 6 5 6 5 2 4 6 8 8 8 7 5 4
13 14 15 18 19 19 19 19 18 18 17 17 17 17 18 18 19 20 19 19 20 20 21 21 21 21 20 20 20 19 18 17 15 13 13 13 12 12 12 12 11 11 11 11 11 10 10 11 12 12 12 11 10 10 10 11 11 11 11 11 12 12 12 12 11 11 11 11 11 10 9 8 8 6 6 7 6 5 7 8 9 8 7 6 5
14 15 16 18 19 20 20 19 19 18 17 17 17 17 19 19 20 21 20 20 20 20 21 21 20 19 18 17 17 16 15 14 14 13 12 11 11 10 10 10 10 10 10 10 9 9 9 10 11 10 10 9 9 8 8 8 7 7 7 8 8 9 10 10 10 11 11 11 12 12 12 11 10 9 8 8 9 9 7 8 8 7 6 6 6
14 15 16 18 19 20 20 20 19 18 18 17 18 18 19 20 21 21 21 21 21 20 20 20 18 17 16 15 15 15 14 13 12 12 11 10 9 9 10 9 9 9 9 9 8 8 8 8 8 8 7 6 5 5 4 4 4 4 5 5 6 6 7 8 8 9 10 10 11 12 13 13 12 12 11 11 12 12 9 8 6 5 5 6 7
14 15 16 18 19 20 21 21 20 19 18 18 18 19 20 21 21 22 21 21 20 19 19 18 17 16 15 15 14 14 13 12 11 10 10 9 9 9 9 9 9 8 8 7 7 6 6 5 5 4 3 2 2 2 2 3 4 4 5 5 5 5 6 6 7 7 7 8 9 11 12 13 14 14 14 15 15 14 12 10 7 5 5 5 7
14 15 16 17 19 20 21 22 21 20 19 19 19 19 20 21 21 21 20 20 20 18 18 17 17 16 15 15 14 13 12 11 10 9 8 8 9 9 9 9 8 7 6 6 5 5 4 4 4 3 2 1 1 2 3 3 4 5 5 6 6 6 6 6 6 6 7 7 8 9 10 12 14 15 15 17 17 16 15 13 10 8 7 6 6
15 16 17 18 19 20 21 22 22 22 21 20 20 20 20 20 20 20 20 20 19 19 18 17 16 16 15 14 13 13 12 11 10 9 9 9 9 9 9 8 7 6 6 5 5 5 5 4 4 3 2 2 2 2 3 3 4 4 5 6 6 7 7 7 7 7 7 7 7 8 9 11 13 14 15 17 17 17 17 16 15 12 10 9 7
17 18 18 19 20 21 22 22 22 22 22 21 21 21 21 21 21 21 21 20 19 19 18 17 17 16 15 14 14 13 12 12 10 10 9 9 9 9 8 8 7 6 6 5 5 5 4 3 3 2 1 1 1 2 2 3 3 3 4 5 6 6 7 8 8 8 8 8 8 8 9 9 11 14 16 17 18 18 18 18 18 16 15 13 11
18 19 20 20 21 22 22 23 23 23 22 22 22 22 21 21 21 21 21 20 19 19 18 17 16 16 15 15 14 14 13 12 11 10 10 10 9 9 8 8 7 6 6 5 4 4 3 2 2 2 2 2 2 3 3 4 4 4 4 4 5 5 6 6 7 8 8 8 9 9 10 10 10 12 14 17 18 19 19 19 20 19 19 18 17
19 20 21 21 22 23 23 24 24 24 24 24 24 23 22 22 22 21 20 19 19 18 18 17 17 16 16 15 15 13 12 11 11 11 10 10 10 9 9 8 7 7 6 5 4 4 3 3 2 2 2 3 4 5 5 6 6 6 6 6 6 6 6 6 6 7 7 8 9 9 10 11 11 12 13 15 17 18 18 19 20 21 21 21 21
20 21 21 23 23 24 25 25 26 26 26 26 26 25 24 23 23 22 21 19 19 19 18 18 17 17 17 16 15 14 12 12 11 11 11 11 10 10 9 8 8 7 6 5 5 4 4 3 2 2 3 4 5 6 7 8 8 8 8 8 8 8 7 7 7 7 7 8 9 10 11 11 12 13 13 14 15 16 17 18 19 21 21 22 22
21 22 23 24 24 25 26 27 27 27 28 28 28 27 26 25 24 23 22 20 20 20 20 19 18 18 18 17 15 14 13 12 12 11 11 11 11 10 9 9 8 7 7 6 5 5 4 3 3 3 4 6 7 8 9 9 10 10 10 10 10 10 10 9 9 8 8 8 9 10 11 12 12 13 14 14 15 15 15 16 17 18 20 21 21
23 24 24 25 26 26 27 28 29 29 30 30 30 29 27 27 26 25 23 22 22 22 21 21 20 20 19 18 16 14 13 12 12 11 12 11 11 10 10 9 8 8 7 6 6 5 4 3 4 4 6 7 8 9 9 10 11 11 12 12 12 12 11 11 10 10 9 9 9 9 10 12 13 13 14 14 14 14 14 15 15 16 17 18 19
25 25 25 26 27 27 28 29 30 30 32 32 32 31 30 29 28 27 25 24 24 24 23 22 22 21 20 19 17 15 14 13 13 12 12 12 11 10 10 9 9 8 7 6 6 5 4 4 5 6 7 8 8 9 10 11 12 12 13 13 13 13 12 12 12 11 10 10 9 9 10 11 12 13 14 14 14 14 13 14 14 15 16 17 17
26 26 25 26 28 28 28 29 30 31 33 33 33 32 31 31 30 29 27 27 26 25 25 24 24 23 22 21 19 17 16 15 14 14 14 13 12 11 11 10 9 8 8 7 6 6 6 6 7 7 8 8 9 10 10 11 12 12 13 13 13 13 13 13 12 12 11 10 10 10 10 11 12 13 13 14 14 14 14 14 14 15 15 16 16
26 26 25 26 28 28 28 29 30 32 33 34 34 34 33 33 32 30 29 29 28 27 26 26 25 25 24 23 21 19 18 16 16 15 15 14 13 12 11 11 10 9 9 8 7 7 7 7 8 8 9 9 10 10 11 11 12 12 12 13 13 13 13 13 13 13 12 11 11 11 11 11 12 12 13 14 14 14 14 14 14 15 15 15 16
27 27 28 28 28 28 29 28 29 31 33 34 35 35 35 34 33 32 31 31 30 29 28 28 27 27 26 25 24 22 20 19 18 17 15 15 14 13 13 12 11 10 9 8 8 7 7 8 8 9 9 10 10 11 12 12 12 12 12 12 13 13 13 13 13 13 13 12 11 11 11 11 12 12 13 13 14 14 14 14 14 15 15 15 16
29 30 30 29 29 29 30 30 30 31 33 34 35 36 36 36 35 34 33 33 32 31 30 30 29 29 29 28 26 24 22 21 19 18 17 16 16 15 14 13 12 11 10 9 8 8 8 8 8 9 9 10 10 11 12 13 13 13 13 13 13 13 13 14 14 14 13 13 12 11 11 12 12 12 13 14 14 14 15 15 14 15 15 15 16
30 31 30 30 30 30 31 31 31 31 32 34 36 37 37 37 37 36 35 34 33 33 32 31 31 31 31 30 29 26 24 22 21 19 18 17 16 16 15 14 13 12 11 10 9 9 9 9 9 9 9 10 11 12 12 13 13 13 13 13 13 13 14 14 14 14 14 13 13 12 11 12 12 13 13 14 14 15 15 15 15 14 15 15 16
32 32 31 31 31 31 31 32 33 33 33 34 36 37 38 38 38 38 37 36 35 34 33 33 33 33 33 32 30 28 26 24 22 20 19 18 17 16 15 15 14 13 12 12 11 10 10 9 9 10 10 10 11 12 13 13 13 13 14 13 13 14 14 14 14 14 14 13 13 12 12 12 12 13 13 14 14 15 16 16 15 14 14 15 15
34 34 33 31 31 32 32 32 34 34 34 34 36 37 38 39 40 40 39 38 37 36 34 34 34 34 34 34 32 30 28 26 24 22 20 19 18 17 16 16 15 15 14 13 13 11 11 11 11 11 11 11 11 12 13 13 13 13 13 13 13 13 14 14 14 14 13 13 13 12 12 12 12 13 13 14 14 14 15 15 15 14 13 13 13
34 35 35 34 33 33 33 33 34 35 35 35 36 37 39 40 40 40 40 40 39 37 36 36 35 35 35 35 33 32 29 27 25 23 22 20 19 18 18 17 17 17 16 15 14 13 12 12 12 12 12 12 12 12 13 13 13 13 13 13 13 13 13 14 14 13 13 13 12 12 12 11 12 13 13 13 13 13 13 14 14 13 12 11 11
34 36 35 35 35 35 34 34 35 35 35 35 36 37 39 39 40 40 41 41 40 39 38 37 36 36 36 35 34 33 31 29 27 25 23 22 21 20 19 18 18 18 18 17 15 14 13 12 12 12 12 12 12 12 13 13 13 13 13 13 13 13 13 14 14 13 13 12 12 12 12 12 12 13 13 12 11 11 11 11 12 12 11 10 9
35 35 34 36 37 36 36 36 36 36 36 36 37 38 38 39 40 41 42 42 42 41 40 39 38 37 36 36 35 34 32 31 28 26 24 23 22 21 20 20 20 20 19 18 16 15 13 13 12 11 11 11 11 12 12 13 13 13 13 13 13 13 14 13 13 13 12 12 11 11 12 12 12 11 11 10 9 9 8 9 9 10 9 8 7
35 34 36 37 36 36 37 37 37 38 38 38 37 37 38 39 40 41 42 43 43 43 42 40 39 38 37 36 36 35 34 32 30 28 26 25 23 23 22 21 21 21 20 18 17 16 14 13 12 11 11 11 11 12 12 13 13 13 13 13 13 13 13 13 13 12 12 11 10 11 11 11 10 9 9 8 8 7 7 7 7 8 7 7 7
36 36 38 36 35 37 38 38 38 39 39 39 39 39 39 39 40 40 41 43 44 44 43 42 40 39 38 37 36 35 35 33 31 29 28 27 25 25 23 23 23 23 21 19 18 17 15 14 13 12 12 11 12 12 12 12 13 13 13 13 13 13 13 13 12 11 11 10 10 10 9 9 8 8 8 8 7 6 6 6 7 7 7 7 7
39 39 39 37 37 38 38 38 38 39 39 39 40 40 40 40 40 40 41 43 44 45 44 43 42 41 39 38 37 36 35 35 33 31 29 28 27 26 25 25 25 24 22 21 20 18 17 15 14 13 13 13 12 12 11 12 12 13 13 13 13 13 13 12 11 11 10 9 8 8 8 8 8 8 8 8 8 7 6 6 6 7 7 7 7
43 42 41 40 40 40 39 39 38 39 39 39 39 40 41 41 41 40 40 42 44 45 45 44 43 42 41 39 38 36 36 35 34 33 31 30 29 28 27 27 26 25 24 23 21 19 18 17 16 15 14 14 13 12 11 11 12 13 13 13 13 13 13 12 11 10 9 8 7 7 8 9 9 9 9 8 8 7 7 6 6 5 6 6 7
46 45 45 43 42 41 41 40 38 38 39 39 40 41 42 42 42 41 41 42 44 46 46 45 44 44 42 41 39 37 36 36 35 34 33 31 30 29 29 28 27 26 25 24 22 21 19 18 17 16 15 14 13 12 11 11 12 13 14 13 13 13 13 12 10 10 9 8 7 7 7 8 9 9 9 8 8 7 7 6 5 5 5 5 6
45 45 45 44 43 42 42 41 39 38 38 40 40 41 42 43 43 43 43 43 43 45 46 46 46 45 44 42 39 38 37 36 36 36 34 33 32 32 31 30 29 28 27 26 24 23 21 20 19 18 16 14 13 12 11 11 12 13 13 13 13 12 12 11 10 9 9 9 9 8 7 7 8 8 7 7 6 6 5 5 5 4 4 5 5
41 41 41 41 41 41 41 41 40 39 39 39 40 42 43 44 44 44 44 44 44 46 46 47 46 45 44 42 41 39 38 37 37 37 36 36 35 34 33 31 30 30 29 28 26 25 23 22 21 19 17 15 13 12 12 11 11 13 13 13 12 11 11 10 9 9 9 10 11 10 8 6 6 5 5 5 5 4 4 4 3 4 4 4 4
39 37 37 37 38 37 38 39 40 40 40 41 41 43 45 45 45 46 46 46 45 46 46 46 46 44 44 43 43 41 39 38 38 38 38 38 37 35 34 32 32 31 31 29 28 26 24 23 21 19 17 15 14 13 12 11 11 12 12 11 11 10 10 9 8 9 9 10 10 9 8 7 6 6 5 5 4 4 3 3 3 3 3 3 3
37 35 35 35 34 34 35 37 38 40 42 43 43 44 45 45 46 46 45 45 45 46 46 46 45 44 44 44 44 43 41 41 40 40 40 40 38 36 35 34 33 32 31 30 28 26 25 24 22 20 18 16 15 14 13 12 11 11 10 10 10 10 8 8 8 8 8 7 7 8 7 6 6 6 6 5 4 4 3 3 4 3 3 3 3
35 33 32 32 32 32 33 34 35 38 40 42 43 43 44 45 45 43 43 44 45 45 45 45 45 44 44 45 46 45 44 43 42 41 41 41 39 37 36 35 34 33 32 30 29 28 27 26 24 22 20 18 17 16 14 13 11 10 10 9 9 8 8 8 9 10 9 5 5 6 6 4 4 4 5 5 4 4 4 4 4 4 3 3 3
32 30 29 29 29 30 31 31 33 35 37 40 42 42 42 44 46 44 43 44 44 45 45 45 44 45 46 46 46 46 46 45 43 42 42 41 39 38 37 36 35 34 33 32 31 31 29 27 25 24 22 20 19 18 16 15 13 11 10 8 6 7 9 8 9 12 11 9 8 9 7 4 3 3 4 4 5 4 4 5 5 5 4 4 3
30 29 28 28 28 29 29 30 31 32 35 38 41 42 42 44 47 47 45 44 44 44 45 45 45 46 46 46 47 47 47 46 44 43 42 41 40 39 37 37 36 35 34 34 33 32 30 29 27 26 24 22 21 19 17 15 14 12 9 7 6 6 7 5 7 9 11 13 14 13 10 5 3 4 4 5 5 4 4 5 5 4 4 3 3
29 28 27 27 28 28 28 29 29 31 32 35 38 41 43 45 48 48 47 46 45 45 46 47 48 48 47 46 46 46 46 46 45 44 43 42 41 39 38 38 37 36 36 35 34 32 31 30 29 27 26 24 23 20 18 16 14 13 10 8 6 5 6 6 6 7 9 10 10 12 11 7 4 5 6 5 5 4 4 4 3 3 3 3 4
30 27 25 25 26 27 28 29 30 30 31 33 36 39 42 45 48 49 48 48 48 48 47 48 48 46 44 43 43 43 45 46 46 46 45 43 42 40 40 39 38 37 36 36 35 33 32 31 30 28 27 26 24 22 21 18 16 14 13 11 9 8 8 9 9 8 8 9 8 10 10 8 6 6 6 6 5 4 4 3 2 2 3 4 6
28 25 23 23 24 26 28 29 30 31 32 34 36 38 41 44 46 48 48 47 46 46 46 46 43 39 38 40 40 42 44 46 47 47 46 44 42 41 40 40 39 38 37 37 36 34 33 32 31 30 29 27 26 24 22 20 17 15 13 11 11 11 11 11 12 10 9 9 8 9 8 7 7 6 5 5 5 4 3 2 2 2 4 5 6
26 24 22 20 22 25 28 30 30 31 32 34 36 38 40 42 44 45 46 47 46 44 43 42 40 38 39 40 40 41 42 45 47 48 46 45 43 42 41 41 40 39 38 38 36 35 34 34 32 31 30 28 27 25 23 21 19 16 14 12 11 11 11 12 13 13 11 10 9 9 8 7 6 5 4 5 5 4 2 2 2 3 4 6 7
25 23 20 18 19 22 25 29 31 32 33 35 37 38 38 39 41 43 45 45 45 45 43 42 40 40 40 40 40 41 41 43 46 47 47 45 44 42 42 41 41 40 39 38 37 36 36 35 34 33 31 29 27 26 24 22 19 17 15 13 12 12 12 13 14 14 14 13 12 10 8 7 6 5 5 5 5 4 2 2 3 4 5 7 8
24 22 20 18 18 19 22 25 29 31 33 34 36 37 38 39 39 40 42 43 44 44 43 43 41 40 41 41 41 41 40 41 43 46 47 46 44 43 42 41 41 40 39 39 38 37 37 37 35 34 31 29 28 27 24 22 20 18 17 15 14 13 13 14 15 15 14 14 13 11 9 9 8 5 5 5 4 2 2 3 3 5 7 9 10
20 21 20 18 18 19 19 21 24 28 31 33 34 36 37 38 39 39 39 40 42 42 42 42 42 42 42 42 41 40 39 39 41 44 45 46 45 44 43 42 41 41 40 40 39 38 38 37 36 34 32 30 29 28 26 24 22 20 18 17 15 14 14 14 14 15 15 14 15 14 12 10 9 6 5 6 6 4 3 3 5 7 9 10 12
Wind_Direction
196 197 204 203 200 197 198 198 193 192 195 202 205 206 203 200 193 189 190 191 193 193 192 187 187 186 188 190 194 196 198 199 194 193 193 196 198 202 204 201 198 199 208 214 214 193 187 193 189 180 169 181 199 181 100 39 38 40 58 65 62 50 37 28 23 24 20 20 32 53 61 63 66 56 57 76 44 13 25 33 42 46 47 46 39
193 193 200 202 203 200 201 202 201 200 200 203 205 208 207 208 206 202 197 196 197 199 200 194 191 192 197 198 199 198 199 203 200 199 199 199 194 194 193 189 187 190 221 234 241 224 218 212 197 187 182 190 204 212 223 258 311 338 337 355 6 12 15 15 15 17 14 14 20 48 68 75 75 63 62 66 35 13 13 16 29 41 50 52 47
188 192 197 199 202 201 203 203 205 205 206 207 207 210 211 213 214 214 209 205 205 205 206 199 198 199 203 203 203 203 200 204 209 206 200 196 188 188 185 181 180 177 211 234 252 247 240 229 223 209 198 205 215 225 239 265 286 304 320 330 332 337 346 355 357 358 356 349 348 6 59 78 82 73 71 70 46 22 5 1 9 27 38 38 39
189 194 197 198 201 202 205 205 209 209 209 211 211 213 214 217 218 218 215 212 211 209 207 203 204 203 205 202 202 206 202 200 203 202 197 193 187 187 183 182 180 170 191 201 212 222 220 218 229 229 220 227 234 242 264 284 296 304 312 310 299 303 316 333 335 329 325 320 313 314 346 68 91 89 80 82 68 31 10 358 353 348 347 351 9
192 196 199 200 201 202 205 207 212 213 213 212 213 215 216 218 218 219 217 215 210 208 208 206 207 203 204 201 202 204 200 201 200 202 203 202 202 205 201 198 191 178 183 185 201 217 223 226 237 239 231 240 251 264 283 292 297 299 300 297 293 291 293 301 307 304 299 293 288 286 279 255 155 124 83 66 59 22 12 360 348 339 348 352 352
197 197 202 203 202 202 204 207 210 211 211 212 213 215 216 217 215 215 215 212 205 205 207 206 204 202 203 201 203 203 201 206 207 210 212 211 215 221 222 219 212 206 198 192 212 225 235 245 249 241 239 265 274 279 288 293 293 293 292 289 286 281 282 284 284 285 284 282 280 275 267 245 220 180 120 55 320 328 351 339 340 336 341 360 12
201 198 203 206 205 204 204 205 207 208 208 209 212 215 216 217 214 211 210 206 201 203 206 205 204 204 203 201 201 204 208 214 217 220 222 222 225 231 234 234 230 230 226 222 235 246 254 262 261 256 269 283 283 283 288 290 291 291 290 288 284 279 275 274 271 271 273 274 276 273 269 249 232 200 171 92 306 291 319 302 307 323 321 326 346
200 201 204 207 208 207 205 205 206 206 206 207 211 214 214 216 214 208 207 204 200 200 203 204 204 205 205 204 205 211 218 225 230 233 236 237 238 240 242 245 244 245 245 245 253 259 261 265 265 269 278 283 283 284 288 290 291 291 291 290 288 284 277 272 266 265 266 266 270 271 271 260 245 219 195 176 323 279 282 279 281 302 308 301 304
204 204 205 206 209 210 207 206 208 207 206 208 211 212 211 213 213 208 207 205 203 202 206 209 211 213 214 215 219 224 230 235 240 242 243 243 244 246 247 249 250 252 253 255 260 262 262 263 265 271 276 279 281 284 287 289 290 291 292 292 290 288 283 278 271 266 263 261 262 263 267 267 258 240 214 205 230 257 255 264 270 284 296 294 287
215 209 207 208 209 210 209 208 209 209 207 209 211 210 209 211 213 212 212 213 214 214 216 221 223 225 225 226 230 233 237 241 245 245 242 241 242 243 246 247 248 250 251 254 258 260 260 261 264 268 272 275 278 281 283 285 287 290 291 292 291 289 287 284 278 271 265 260 257 255 257 261 261 255 237 224 225 238 249 257 264 277 297 306 297
223 217 213 211 210 210 210 211 210 210 210 211 212 211 211 212 214 216 219 223 225 225 227 231 233 233 232 232 234 237 241 243 245 243 240 238 239 240 243 245 245 247 246 249 252 252 253 257 262 266 271 276 279 281 284 286 291 295 298 298 298 296 294 289 284 277 270 263 257 253 251 251 255 255 251 241 234 238 248 253 259 275 297 305 301
227 224 220 216 214 212 211 213 212 212 212 214 216 215 216 217 218 221 225 229 229 229 230 233 234 233 233 233 232 236 240 242 240 238 236 234 237 239 241 242 241 243 243 244 245 245 247 252 259 266 273 278 283 288 295 301 309 313 316 315 313 310 307 302 295 287 277 268 260 254 249 247 247 249 249 247 244 245 248 246 249 265 279 287 289
227 227 224 222 219 217 215 215 215 215 215 217 219 220 222 223 225 228 231 232 231 229 229 230 229 228 229 230 231 235 237 238 237 233 231 230 233 236 237 238 236 236 237 237 234 232 232 233 238 246 254 265 282 298 310 317 321 320 319 316 313 311 308 308 304 298 290 280 268 258 250 246 243 243 243 243 247 250 250 245 238 245 254 269 281
226 227 226 227 225 222 219 217 218 218 219 219 222 224 224 226 228 230 233 234 232 230 227 226 223 223 224 226 229 232 233 233 233 230 228 229 231 233 234 234 232 229 224 218 209 200 192 184 182 186 196 221 263 294 309 314 318 317 316 313 311 309 307 305 303 300 298 293 284 272 259 250 245 243 242 243 247 249 250 246 238 237 234 239 262
222 226 228 229 229 228 225 222 221 221 222 222 223 224 224 225 228 229 231 231 230 228 225 223 221 220 221 222 225 225 226 224 223 223 222 225 227 229 230 229 224 215 203 191 182 173 171 170 174 183 196 221 257 288 304 311 314 316 314 313 311 309 308 304 301 297 294 293 291 287 275 261 252 248 246 247 250 249 249 247 242 240 236 235 235
217 221 226 228 230 230 230 228 226 225 225 224 225 224 224 225 226 226 226 226 226 226 223 222 220 219 218 217 217 215 214 214 214 215 217 221 224 226 225 221 213 202 192 184 179 178 182 187 197 212 234 266 288 303 313 317 315 315 312 309 306 304 305 303 301 298 293 291 289 289 286 275 261 253 250 250 251 250 249 248 245 242 239 240 239
216 218 222 224 228 230 232 232 230 229 228 226 227 226 225 225 225 223 223 224 224 225 223 222 220 218 216 212 210 208 207 209 210 213 216 220 222 222 219 214 209 203 199 195 195 198 208 222 241 268 289 309 323 330 332 332 328 325 321 314 310 305 301 300 298 296 292 288 285 284 284 282 276 263 254 251 251 251 250 249 248 245 243 244 247
217 219 221 222 223 227 231 233 232 231 230 228 227 228 227 227 227 227 227 228 227 228 226 223 222 217 213 210 207 206 207 208 211 214 216 217 217 214 211 209 208 207 207 208 214 221 231 243 257 282 306 326 333 339 339 339 339 337 335 331 325 319 311 305 299 295 291 286 281 277 276 276 278 274 266 257 254 253 251 250 250 250 247 247 251
219 220 221 222 222 224 227 230 232 232 230 229 229 229 229 229 230 231 232 232 231 231 229 226 224 218 213 209 208 208 209 212 213 215 214 213 212 210 208 207 208 208 212 216 222 229 234 243 256 289 313 329 335 339 340 342 342 342 342 340 336 331 326 320 312 304 296 289 282 276 272 270 271 273 272 268 264 259 255 252 252 253 252 250 252
222 222 221 223 223 223 224 226 230 231 230 229 229 229 229 231 232 233 233 233 231 231 230 227 224 219 214 211 211 212 214 215 215 214 212 210 208 206 207 206 208 210 215 220 223 228 232 247 270 299 316 326 332 336 339 341 343 344 344 342 340 337 334 330 325 317 307 296 287 279 274 271 269 268 269 270 270 268 264 260 257 257 257 256 255
228 227 225 224 224 224 224 224 226 228 229 228 229 229 229 230 232 233 233 233 232 231 230 226 222 218 216 215 215 217 217 218 216 214 211 209 208 206 208 208 211 214 217 221 223 229 238 259 283 302 315 323 328 333 336 340 343 344 344 343 342 339 338 335 331 325 317 305 293 284 277 272 269 267 266 266 267 269 269 268 265 263 262 262 261
234 233 230 227 224 224 224 225 225 225 227 228 229 229 229 230 232 233 233 233 232 232 231 226 223 218 216 216 217 218 218 218 216 214 213 211 211 209 212 215 217 222 224 227 231 239 254 274 293 307 317 323 328 333 337 342 344 345 345 344 343 341 339 337 334 329 321 311 299 288 280 274 270 268 266 266 266 266 267 267 267 266 266 267 266
241 240 238 233 228 225 225 225 225 225 225 227 229 229 229 230 231 231 231 232 232 232 231 227 223 218 216 217 218 219 218 219 217 215 215 213 213 214 217 220 224 229 233 237 244 256 270 285 299 310 317 324 330 336 340 343 345 345 344 343 343 342 341 339 335 330 323 315 305 294 284 276 272 269 267 265 265 264 263 262 262 263 263 265 266
251 250 245 240 235 231 228 227 226 226 226 226 228 229 229 230 230 230 231 231 232 232 231 227 223 218 216 218 219 219 219 219 218 217 216 214 215 218 221 223 228 232 238 244 252 264 278 291 302 310 317 324 330 335 340 342 344 343 343 342 342 341 341 339 336 332 326 319 310 300 290 281 275 270 268 265 264 263 260 259 259 259 260 262 263
257 252 248 245 243 238 233 230 228 227 227 227 227 229 229 230 230 229 230 230 231 232 230 226 222 218 217 218 220 219 219 219 220 218 215 215 215 218 221 223 228 232 237 245 256 269 281 292 301 309 316 323 328 334 338 340 341 341 340 340 340 340 338 337 336 333 327 321 314 304 295 286 279 273 269 266 264 262 260 259 258 259 260 261 263
253 252 251 248 246 243 239 234 231 230 229 229 228 229 230 230 231 230 230 231 231 231 229 226 222 219 217 218 220 219 220 220 220 218 215 214 215 217 219 223 226 229 235 244 255 266 276 287 297 306 313 321 327 332 335 337 338 337 337 337 337 336 336 335 335 332 328 322 316 307 298 289 282 275 270 268 265 263 260 258 257 257 258 259 261
258 259 256 251 248 246 242 238 236 234 231 230 229 229 230 231 231 231 232 232 232 231 230 228 224 221 219 219 220 221 221 220 220 218 215 215 216 217 219 223 225 229 234 241 250 259 270 282 293 303 312 320 325 330 333 335 335 334 334 334 335 334 334 334 334 332 327 322 315 307 300 291 283 275 270 267 264 263 260 258 255 255 256 256 257
261 261 257 253 251 248 245 241 239 237 234 232 231 230 230 230 231 231 232 232 232 232 231 229 226 223 221 221 221 221 221 221 221 219 217 217 218 219 220 223 225 228 233 238 247 256 268 281 291 301 310 316 322 327 330 331 331 331 331 332 332 332 333 333 333 331 327 321 314 306 298 291 284 276 270 265 262 260 259 257 254 252 252 253 253
261 261 257 254 253 250 246 243 241 239 237 235 233 232 231 230 230 231 231 231 232 232 231 230 228 226 223 222 222 222 222 222 221 220 219 219 219 220 222 223 225 228 233 239 248 258 270 282 293 300 306 312 318 323 326 327 327 327 326 327 328 329 330 331 330 328 324 318 311 304 296 290 283 277 270 264 260 259 258 256 253 250 249 249 250
265 263 260 258 254 251 248 246 244 241 238 237 236 235 233 232 232 232 232 231 232 231 231 230 229 228 226 224 223 223 223 223 223 221 220 221 222 223 224 224 225 229 234 241 249 259 270 280 289 295 301 308 314 319 321 322 322 321 321 322 323 325 327 328 328 325 320 314 307 300 293 286 280 274 270 264 261 258 256 254 250 246 244 243 246
268 264 263 261 256 253 251 248 246 243 240 239 238 237 236 235 234 233 232 232 232 231 231 231 230 229 228 226 225 224 224 224 224 223 222 223 224 225 227 226 227 230 235 241 248 256 264 272 279 286 294 302 309 313 316 317 316 316 317 318 320 322 325 326 326 322 317 311 303 296 289 283 276 270 267 264 261 257 253 251 248 245 243 240 242
271 270 269 265 260 259 256 251 248 246 243 241 239 238 238 237 236 234 234 233 232 231 231 231 231 230 229 227 226 225 225 225 224 224 223 225 226 227 228 228 228 231 236 241 246 252 257 264 270 277 285 293 300 304 308 311 312 313 314 316 318 321 324 325 324 320 316 310 301 293 286 279 272 265 261 259 256 253 248 247 247 247 247 242 240
275 274 270 267 266 263 258 255 251 248 246 244 242 241 239 238 237 236 235 234 232 232 232 232 232 231 230 228 227 226 225 226 225 225 224 225 227 228 228 228 229 232 235 239 244 248 253 258 263 269 276 283 290 296 301 306 308 311 313 314 317 319 322 324 322 318 312 307 298 289 281 272 264 255 250 247 244 242 239 238 237 238 237 232 231
279 273 268 267 267 264 259 256 252 250 248 246 244 242 241 239 238 237 236 235 234 233 233 233 233 232 231 229 227 226 226 226 225 225 225 226 226 227 228 227 229 232 234 238 241 244 248 252 257 261 269 276 282 290 298 304 308 310 312 314 316 318 320 322 320 314 306 299 291 281 269 255 244 238 236 235 234 230 226 226 224 225 224 224 226
279 276 274 271 266 263 261 258 254 252 249 247 246 244 243 241 239 237 236 235 235 234 234 233 233 232 231 230 228 227 226 226 225 225 226 227 227 227 227 227 228 231 233 235 237 241 244 247 251 256 263 269 277 287 298 306 311 311 311 312 314 316 318 321 318 310 299 289 279 264 246 233 228 229 234 234 233 229 224 222 220 222 222 224 228
280 280 280 275 268 264 261 259 256 253 250 248 247 245 244 242 240 238 236 236 235 235 234 233 233 233 232 230 228 227 226 226 226 226 226 227 228 228 227 227 228 230 231 233 235 238 241 243 248 252 258 265 273 285 297 307 312 312 310 311 313 314 315 318 316 305 292 276 258 243 230 227 228 231 235 238 240 241 237 232 228 228 228 232 236
279 280 279 277 273 268 262 259 258 256 253 249 247 246 244 243 241 239 237 236 236 235 234 233 233 233 232 230 229 227 227 227 226 226 227 227 228 228 227 226 227 228 229 231 233 236 238 240 244 248 254 260 269 280 292 303 311 311 311 312 311 312 313 315 313 300 282 259 242 236 233 233 235 236 237 239 244 248 247 242 238 241 246 249 250
278 278 277 276 274 271 265 261 259 257 254 250 248 246 245 243 241 239 237 236 236 235 234 233 233 232 232 231 230 228 227 227 226 226 227 227 227 227 227 226 226 227 228 230 231 233 235 237 241 246 250 255 264 275 286 297 307 308 310 312 310 311 312 313 308 293 271 248 237 238 244 241 239 237 236 236 237 242 243 246 248 254 262 266 269
279 277 276 275 273 270 267 263 259 256 254 250 247 244 243 241 240 239 237 236 235 234 233 232 232 232 232 232 231 230 228 227 227 227 227 226 226 226 226 226 225 226 226 228 230 232 233 236 239 243 247 253 261 270 280 291 301 305 309 311 309 310 309 308 299 281 260 242 236 240 245 243 239 235 235 235 234 235 235 243 252 260 270 278 283
281 278 275 272 270 268 265 262 259 257 253 248 243 241 240 239 238 237 236 236 234 233 232 231 231 231 232 232 231 230 229 228 227 227 226 226 227 226 226 226 225 225 226 228 230 232 233 235 237 239 244 251 258 265 274 284 295 303 309 310 307 306 303 299 285 263 247 236 235 239 239 236 240 244 245 246 245 246 245 247 253 261 281 298 304
283 280 276 272 270 267 264 261 259 257 254 249 243 240 239 237 236 236 236 236 236 234 232 230 230 229 230 231 231 230 228 227 227 227 226 227 227 226 226 226 225 224 226 228 230 230 231 232 234 237 242 249 255 262 269 278 290 299 307 309 305 299 295 288 266 237 224 228 230 228 228 233 244 249 251 254 258 258 258 261 266 277 297 310 317
288 285 282 277 272 266 263 262 259 257 256 253 248 244 241 239 239 239 238 236 236 235 233 231 228 227 227 228 229 228 227 227 227 227 227 227 227 226 226 227 226 225 225 226 226 227 229 231 234 238 242 247 253 260 266 274 284 293 303 308 303 295 293 283 252 225 213 216 225 222 226 242 252 253 254 257 261 264 269 276 287 300 309 314 320
294 290 285 279 271 265 262 259 257 255 255 253 250 247 245 242 241 240 239 237 236 236 234 232 228 226 226 227 227 227 226 227 226 227 227 227 227 226 227 227 226 226 226 226 225 226 229 231 235 238 241 244 248 254 261 269 277 288 301 304 296 291 292 278 236 220 218 230 252 242 233 248 262 262 265 263 264 269 278 287 300 312 317 323 329
296 293 288 281 274 269 265 260 259 257 255 253 251 248 245 242 240 238 237 237 237 236 234 231 228 227 226 226 226 226 225 226 226 227 227 227 227 226 226 227 227 227 227 227 228 230 232 233 235 237 239 242 244 248 254 262 270 279 289 292 291 285 276 246 208 221 235 249 257 241 225 239 269 278 281 272 272 281 291 296 304 316 325 341 358
304 301 295 287 280 275 269 263 260 257 254 253 250 246 242 239 237 235 233 233 234 234 232 230 227 225 225 225 226 226 226 226 225 226 226 226 226 226 226 227 227 227 227 227 230 232 233 234 235 236 238 241 243 246 251 256 262 270 275 276 275 254 232 225 231 249 251 254 252 229 227 241 258 279 280 273 281 290 296 301 309 330 1 21 29
316 312 301 291 283 275 269 262 257 254 251 249 247 245 243 240 237 234 232 231 231 232 231 230 227 226 226 226 226 227 226 225 224 225 225 226 225 225 225 226 227 227 227 228 229 230 231 232 233 234 237 240 242 245 248 251 254 261 268 271 270 260 250 250 256 255 247 256 250 226 231 240 250 270 267 264 281 289 293 303 329 15 49 50 48
325 317 303 290 280 272 265 260 256 253 250 247 244 243 242 241 240 239 238 237 236 236 234 233 231 229 227 226 226 226 226 225 224 224 225 225 225 225 225 226 226 226 226 227 228 229 229 230 232 233 235 238 241 244 246 248 250 253 259 265 270 271 266 260 257 249 244 251 243 226 232 238 252 270 261 259 273 283 301 325 9 44 57 51 48
327 316 305 292 279 271 266 262 258 254 251 248 245 243 242 242 241 241 240 240 241 241 240 237 233 229 226 226 226 226 226 226 225 225 225 226 226 225 225 225 226 226 226 227 228 228 228 228 229 230 233 236 240 243 245 247 250 252 254 258 265 269 268 264 260 256 251 250 244 244 250 248 260 277 266 268 279 291 317 349 17 36 43 38 37
327 319 310 296 279 270 265 263 260 256 252 249 247 245 244 244 243 242 241 240 240 241 241 239 234 229 226 226 226 226 227 227 226 226 226 226 227 226 226 226 225 226 226 227 227 227 227 228 229 232 234 236 239 242 245 248 250 253 255 257 262 265 264 263 261 261 260 260 257 254 255 259 273 279 265 279 294 297 314 347 5 19 24 26 26
327 321 310 299 286 273 264 261 260 258 256 252 250 248 246 244 243 242 241 240 239 239 239 238 235 232 228 227 227 227 227 228 228 227 226 227 227 228 228 227 227 227 227 227 226 226 226 228 230 233 236 238 240 242 244 246 248 251 255 259 264 266 265 263 262 263 263 266 268 266 267 272 281 286 280 293 308 298 295 324 352 7 12 17 18
326 321 308 299 292 282 269 261 259 259 258 254 251 249 247 246 245 244 242 240 239 239 239 237 235 233 231 229 229 228 229 229 230 229 228 227 228 228 229 229 228 227 227 227 227 227 227 229 230 232 233 236 239 241 242 244 246 250 254 260 265 268 270 269 267 265 265 269 275 280 285 286 289 295 294 300 315 320 296 310 345 359 7 11 9